User: anonymous   Login
Location: Cow Canyon Saddle
(34.2291°N, 117.6698°W)
Time: 12:14:34
(UTC-07:00)
Language:

Lacrosse 5 - Orbit

View from above orbital plane
View from above orbital plane
View from above satellite
View from above satellite

Ground track
Ground track

The orbit data is extracted from the following two-line orbital elements,

1 28646U 05016A   15181.30814250 0.00000000  00000-0  00000-0 0    00
2 28646  57.0110 285.2358 0008000  19.3858 340.6141 14.52110032    05
Epoch (UTC): 30 June 2015 07:23:43
Eccentricity: 0.0008000
inclination: 57.0110°
perigee height: 713 km
apogee height: 724 km
right ascension of ascending node: 285.2358°
argument of perigee: 19.3858°
revolutions per day: 14.52110032
mean anomaly at epoch: 340.6141°
orbit number at epoch: 0

The dashed part of the orbit path shows where the satellite is in the earth's shadow,  

DLR